Time,TemperatureF,DewpointF,PressureIn,WindDirection,WindDirectionDegrees,WindSpeedMPH,WindSpeedGustMPH,Humidity,HourlyPrecipIn,Conditions,Clouds,dailyrainin,SoftwareType,DateUTC
2013-02-24 01:15:00,35.8,33.7,29.78,ESE,112,10.3,-999.0,92,-99.99,,,0.02,Acu-Link.com,2013-02-24 07:15:00,
2013-02-24 01:30:00,35.2,33.4,29.78,SSE,157,12.5,-999.0,93,-99.99,,,0.02,Acu-Link.com,2013-02-24 07:30:00,
2013-02-24 01:45:00,34.3,33.6,29.78,ESE,112,9.8,-999.0,97,-99.99,,,0.02,Acu-Link.com,2013-02-24 07:45:00,
2013-02-24 02:00:00,34.0,33.2,29.78,ESE,112,8.3,-999.0,97,-99.99,,,0.02,Acu-Link.com,2013-02-24 08:00:00,
2013-02-24 02:16:00,34.0,33.5,29.78,ESE,112,9.4,-999.0,98,-99.99,,,0.02,Acu-Link.com,2013-02-24 08:16:00,
2013-02-24 02:31:00,33.8,33.3,29.77,ESE,112,8.9,-999.0,98,-99.99,,,0.02,Acu-Link.com,2013-02-24 08:31:00,
2013-02-24 02:46:00,33.8,33.3,29.76,NE,45,7.8,-999.0,98,-99.99,,,0.02,Acu-Link.com,2013-02-24 08:46:00,
2013-02-24 03:01:00,33.3,32.8,29.77,ESE,112,8.3,-999.0,98,-99.99,,,0.02,Acu-Link.com,2013-02-24 09:01:00,
2013-02-24 03:18:00,33.3,32.8,29.77,ESE,112,9.4,-999.0,98,-99.99,,,0.02,Acu-Link.com,2013-02-24 09:18:00,
2013-02-24 03:33:00,33.1,32.6,29.76,ESE,112,7.4,-999.0,98,-99.99,,,0.02,Acu-Link.com,2013-02-24 09:33:00,
2013-02-24 03:48:00,32.9,32.4,29.75,East,90,8.9,-999.0,98,-99.99,,,0.02,Acu-Link.com,2013-02-24 09:48:00,
2013-02-24 04:03:00,33.3,32.8,29.75,ESE,112,8.9,-999.0,98,-99.99,,,0.02,Acu-Link.com,2013-02-24 10:03:00,
2013-02-24 04:18:00,33.3,32.8,29.75,ESE,112,10.3,-999.0,98,-99.99,,,0.02,Acu-Link.com,2013-02-24 10:18:00,
2013-02-24 04:34:00,33.1,32.6,29.74,SE,135,11.4,-999.0,98,-99.99,,,0.02,Acu-Link.com,2013-02-24 10:34:00,
2013-02-24 04:49:00,33.1,32.6,29.74,ESE,112,10.3,-999.0,98,-99.99,,,0.02,Acu-Link.com,2013-02-24 10:49:00,
2013-02-24 05:04:00,32.7,32.2,29.73,SE,135,13.0,-999.0,98,-99.99,,,0.02,Acu-Link.com,2013-02-24 11:04:00,
2013-02-24 05:19:00,32.7,32.2,29.73,ESE,112,11.4,-999.0,98,-99.99,,,0.02,Acu-Link.com,2013-02-24 11:19:00,
2013-02-24 05:35:00,32.9,32.4,29.73,ESE,112,9.8,-999.0,98,-99.99,,,0.02,Acu-Link.com,2013-02-24 11:35:00,
2013-02-24 05:50:00,32.7,32.2,29.74,SE,135,8.3,-999.0,98,-99.99,,,0.02,Acu-Link.com,2013-02-24 11:50:00,
2013-02-24 06:05:00,32.4,31.9,29.74,SE,135,9.8,-999.0,98,-99.99,,,0.02,Acu-Link.com,2013-02-24 12:05:00,
2013-02-24 06:20:00,32.2,31.7,29.74,SE,135,8.3,-999.0,98,-99.99,,,0.02,Acu-Link.com,2013-02-24 12:20:00,
2013-02-24 06:50:00,32.2,31.7,29.75,South,180,8.3,-999.0,98,-99.99,,,0.02,Acu-Link.com,2013-02-24 12:50:00,
2013-02-24 07:05:00,32.2,31.7,29.74,SE,135,10.3,-999.0,98,-99.99,,,0.02,Acu-Link.com,2013-02-24 13:05:00,
2013-02-24 07:21:00,32.5,32.0,29.74,ESE,112,13.0,-999.0,98,-99.99,,,0.02,Acu-Link.com,2013-02-24 13:21:00,
2013-02-24 07:36:00,33.4,32.9,29.75,SE,135,9.8,-999.0,98,-99.99,,,0.02,Acu-Link.com,2013-02-24 13:36:00,
2013-02-24 07:51:00,34.2,33.1,29.75,ESE,112,9.4,-999.0,96,-99.99,,,0.02,Acu-Link.com,2013-02-24 13:51:00,
2013-02-24 08:06:00,35.2,33.4,29.76,SE,135,12.5,-999.0,93,-99.99,,,0.02,Acu-Link.com,2013-02-24 14:06:00,
2013-02-24 08:22:00,35.8,33.7,29.76,SE,135,9.8,-999.0,92,-99.99,,,0.02,Acu-Link.com,2013-02-24 14:22:00,
2013-02-24 08:37:00,37.2,34.6,29.77,ESE,112,15.0,-999.0,90,-99.99,,,0.02,Acu-Link.com,2013-02-24 14:37:00,
2013-02-24 08:52:00,38.7,35.1,29.77,SSE,157,14.1,-999.0,87,-99.99,,,0.02,Acu-Link.com,2013-02-24 14:52:00,
2013-02-24 09:07:00,39.9,35.8,29.77,SE,135,13.0,-999.0,85,-99.99,,,0.02,Acu-Link.com,2013-02-24 15:07:00,
2013-02-24 09:22:00,42.3,36.9,29.77,SE,135,11.0,-999.0,81,-99.99,,,0.02,Acu-Link.com,2013-02-24 15:22:00,
2013-02-24 09:38:00,43.2,37.4,29.77,SSE,157,15.4,-999.0,80,-99.99,,,0.02,Acu-Link.com,2013-02-24 15:38:00,
2013-02-24 09:53:00,44.6,38.2,29.76,SSE,157,13.0,-999.0,78,-99.99,,,0.02,Acu-Link.com,2013-02-24 15:53:00,
2013-02-24 10:08:00,46.8,39.6,29.76,SE,135,12.5,-999.0,76,-99.99,,,0.02,Acu-Link.com,2013-02-24 16:08:00,
2013-02-24 10:23:00,47.7,39.8,29.76,ESE,112,14.1,-999.0,74,-99.99,,,0.02,Acu-Link.com,2013-02-24 16:23:00,
2013-02-24 10:38:00,49.3,41.0,29.75,SSE,157,9.8,-999.0,73,-99.99,,,0.02,Acu-Link.com,2013-02-24 16:38:00,
2013-02-24 10:54:00,50.4,41.0,29.75,SSE,157,16.1,-999.0,70,-99.99,,,0.02,Acu-Link.com,2013-02-24 16:54:00,
2013-02-24 11:09:00,50.7,40.9,29.75,South,180,13.4,-999.0,69,-99.99,,,0.02,Acu-Link.com,2013-02-24 17:09:00,
2013-02-24 11:24:00,52.5,41.9,29.75,SSE,157,13.4,-999.0,67,-99.99,,,0.02,Acu-Link.com,2013-02-24 17:24:00,
2013-02-24 11:39:00,52.7,42.1,29.74,SSE,157,14.5,-999.0,67,-99.99,,,0.02,Acu-Link.com,2013-02-24 17:39:00,
2013-02-24 11:54:00,54.7,43.1,29.73,SSE,157,16.1,-999.0,65,-99.99,,,0.02,Acu-Link.com,2013-02-24 17:54:00,
2013-02-24 12:10:00,56.3,44.3,29.72,South,180,11.0,-999.0,64,-99.99,,,0.02,Acu-Link.com,2013-02-24 18:10:00,
2013-02-24 12:25:00,58.3,44.9,29.71,SSE,157,13.0,-999.0,61,-99.99,,,0.02,Acu-Link.com,2013-02-24 18:25:00,
2013-02-24 12:40:00,59.7,45.8,29.70,SSE,157,9.4,-999.0,60,-99.99,,,0.02,Acu-Link.com,2013-02-24 18:40:00,
2013-02-24 12:55:00,59.5,45.2,29.68,SE,135,10.3,-999.0,59,-99.99,,,0.02,Acu-Link.com,2013-02-24 18:55:00,
2013-02-24 13:11:00,61.9,46.9,29.68,SSE,157,17.7,-999.0,58,-99.99,,,0.02,Acu-Link.com,2013-02-24 19:11:00,
2013-02-24 13:26:00,62.1,46.6,29.66,South,180,13.4,-999.0,57,-99.99,,,0.02,Acu-Link.com,2013-02-24 19:26:00,
2013-02-24 13:41:00,62.2,46.8,29.66,South,180,14.1,-999.0,57,-99.99,,,0.02,Acu-Link.com,2013-02-24 19:41:00,
2013-02-24 13:56:00,63.5,46.6,29.64,South,180,9.8,-999.0,54,-99.99,,,0.02,Acu-Link.com,2013-02-24 19:56:00,
2013-02-24 14:11:00,63.9,46.9,29.64,SW,225,12.5,-999.0,54,-99.99,,,0.02,Acu-Link.com,2013-02-24 20:11:00,
2013-02-24 14:27:00,64.2,46.7,29.63,SSE,157,11.4,-999.0,53,-99.99,,,0.02,Acu-Link.com,2013-02-24 20:27:00,
2013-02-24 14:42:00,64.4,46.9,29.62,SSW,202,9.4,-999.0,53,-99.99,,,0.02,Acu-Link.com,2013-02-24 20:42:00,
2013-02-24 14:57:00,65.5,47.4,29.61,South,180,10.3,-999.0,52,-99.99,,,0.02,Acu-Link.com,2013-02-24 20:57:00,
2013-02-24 15:12:00,65.7,47.6,29.61,SE,135,9.4,-999.0,52,-99.99,,,0.02,Acu-Link.com,2013-02-24 21:12:00,
2013-02-24 15:27:00,66.2,47.0,29.60,South,180,13.4,-999.0,50,-99.99,,,0.02,Acu-Link.com,2013-02-24 21:27:00,
2013-02-24 15:43:00,66.4,47.2,29.58,SSE,157,10.3,-999.0,50,-99.99,,,0.02,Acu-Link.com,2013-02-24 21:43:00,
2013-02-24 15:58:00,67.1,46.7,29.57,South,180,14.1,-999.0,48,-99.99,,,0.02,Acu-Link.com,2013-02-24 21:58:00,
2013-02-24 16:13:00,67.3,46.4,29.56,South,180,18.6,-999.0,47,-99.99,,,0.02,Acu-Link.com,2013-02-24 22:13:00,
2013-02-24 16:28:00,67.1,46.7,29.56,South,180,17.0,-999.0,48,-99.99,,,0.02,Acu-Link.com,2013-02-24 22:28:00,
2013-02-24 16:43:00,67.1,46.2,29.55,SSE,157,11.0,-999.0,47,-99.99,,,0.02,Acu-Link.com,2013-02-24 22:43:00,
2013-02-24 16:59:00,67.1,46.7,29.55,SSE,157,14.1,-999.0,48,-99.99,,,0.02,Acu-Link.com,2013-02-24 22:59:00,
2013-02-24 17:14:00,66.7,45.9,29.55,SSE,157,11.0,-999.0,47,-99.99,,,0.02,Acu-Link.com,2013-02-24 23:14:00,
2013-02-24 17:29:00,66.4,46.6,29.56,SE,135,9.4,-999.0,49,-99.99,,,0.02,Acu-Link.com,2013-02-24 23:29:00,
2013-02-24 17:44:00,66.0,47.9,29.56,SE,135,11.4,-999.0,52,-99.99,,,0.02,Acu-Link.com,2013-02-24 23:44:00,
2013-02-24 17:59:00,64.8,47.7,29.56,ESE,112,9.8,-999.0,54,-99.99,,,0.02,Acu-Link.com,2013-02-24 23:59:00,
2013-02-24 18:15:00,62.8,47.8,29.56,SSE,157,8.9,-999.0,58,-99.99,,,0.02,Acu-Link.com,2013-02-25 00:15:00,
2013-02-24 18:30:00,61.7,47.2,29.57,East,90,14.1,-999.0,59,-99.99,,,0.02,Acu-Link.com,2013-02-25 00:30:00,
2013-02-24 18:45:00,60.6,46.7,29.57,ESE,112,11.0,-999.0,60,-99.99,,,0.02,Acu-Link.com,2013-02-25 00:45:00,
2013-02-24 19:00:00,59.9,46.8,29.57,ESE,112,10.3,-999.0,62,-99.99,,,0.02,Acu-Link.com,2013-02-25 01:00:00,
2013-02-24 19:16:00,59.9,46.8,29.57,ESE,112,15.0,-999.0,62,-99.99,,,0.02,Acu-Link.com,2013-02-25 01:16:00,
2013-02-24 19:31:00,58.8,46.7,29.56,ESE,112,14.5,-999.0,64,-99.99,,,0.02,Acu-Link.com,2013-02-25 01:31:00,
2013-02-24 19:46:00,58.1,46.8,29.55,ESE,112,18.1,-999.0,66,-99.99,,,0.02,Acu-Link.com,2013-02-25 01:46:00,
2013-02-24 20:01:00,57.9,46.6,29.54,SE,135,20.6,-999.0,66,-99.99,,,0.02,Acu-Link.com,2013-02-25 02:01:00,
2013-02-24 20:16:00,57.0,47.3,29.53,SE,135,15.4,-999.0,70,-99.99,,,0.02,Acu-Link.com,2013-02-25 02:16:00,
2013-02-24 20:32:00,56.5,47.2,29.57,East,90,4.3,-999.0,71,-99.99,,,0.02,Acu-Link.com,2013-02-25 02:32:00,
2013-02-24 20:47:00,49.8,42.6,29.62,NW,315,22.1,-999.0,76,-99.99,,,0.02,Acu-Link.com,2013-02-25 02:47:00,
2013-02-24 21:02:00,45.5,41.9,29.63,NNW,337,23.3,-999.0,87,-99.99,,,0.07,Acu-Link.com,2013-02-25 03:02:00,
2013-02-24 21:17:00,41.7,40.9,29.65,NW,315,22.8,-999.0,97,-99.99,,,0.81,Acu-Link.com,2013-02-25 03:17:00,
2013-02-24 21:32:00,41.0,40.5,29.63,North,0,19.0,-999.0,98,-99.99,,,1.28,Acu-Link.com,2013-02-25 03:32:00,
2013-02-24 21:48:00,40.6,40.1,29.63,NNE,22,13.4,-999.0,98,-99.99,,,1.40,Acu-Link.com,2013-02-25 03:48:00,
2013-02-24 22:03:00,39.9,39.4,29.65,North,0,23.7,-999.0,98,-99.99,,,1.44,Acu-Link.com,2013-02-25 04:03:00,
2013-02-24 22:18:00,39.7,39.2,29.66,NE,45,18.6,-999.0,98,-99.99,,,1.82,Acu-Link.com,2013-02-25 04:18:00,
2013-02-24 22:33:00,39.7,39.2,29.67,NNE,22,18.6,-999.0,98,-99.99,,,2.17,Acu-Link.com,2013-02-25 04:33:00,
2013-02-24 23:04:00,38.7,38.1,29.68,NE,45,14.1,-999.0,98,-99.99,,,2.47,Acu-Link.com,2013-02-25 05:04:00,
2013-02-24 23:19:00,39.0,38.5,29.66,NNW,337,12.5,-999.0,98,-99.99,,,2.65,Acu-Link.com,2013-02-25 05:19:00,
2013-02-24 23:34:00,39.6,39.0,29.67,NNE,22,15.0,-999.0,98,-99.99,,,2.93,Acu-Link.com,2013-02-25 05:34:00,
2013-02-24 23:49:00,39.7,39.2,29.68,NE,45,9.4,-999.0,98,-99.99,,,3.01,Acu-Link.com,2013-02-25 05:49:00,